Cut Bank, MT

2:34 AM MDT on April 23, 2018 (GMT -0600)
Cut Bank Municipal

Weather History for KCTB - September, 2014

Change the Weather History Date:

Friday, September 26, 2014

  Actual Average Record
Temperature  
Mean Temperature 58 °F 50 °F  
Max Temperature 69 °F 64 °F 89 °F (1963)
Min Temperature 47 °F 37 °F 4 °F (1908)
Degree Days  
Heating Degree Days 7 15  
Month to date heating degree days 260 282  
Since 1 July heating degree days 357 476  
Cooling Degree Days 0 0  
Month to date cooling degree days 11 6  
Year to date cooling degree days 208 159  
Growing Degree Days 8 (Base 50)    
Moisture  
Dew Point 38 °F    
Average Humidity 45    
Maximum Humidity 61    
Minimum Humidity 28    
Precipitation  
Precipitation T in 0.04 in 0.45 in (1929)
Month to date precipitation 0.61 1.10  
Year to date precipitation 14.45 9.76  
Snow  
Snow 0.00 in - - ()
Snow Depth 0.00 in    
Sea Level Pressure  
Sea Level Pressure 29.88 in    
Wind  
Wind Speed 17 mph (West)    
Max Wind Speed 36 mph    
Max Gust Speed 43 mph    
Visibility 10 miles    
Events      
T = Trace of Precipitation, MM = Missing Value Source: NWS Daily Summary

Daily Weather History Graph

Daily Weather History Graph

Search for Another Location

Airport or City:

Astronomy

Sep. 26, 2014 Rise Set
Actual Time 7:21 AM MDT 7:18 PM MDT
Civil Twilight 6:50 AM MDT 7:49 PM MDT
Nautical Twilight 6:13 AM MDT 8:26 PM MDT
Astronomical Twilight 5:36 AM MDT 9:04 PM MDT
Moon 9:54 AM MDT (9/26) 8:27 PM MDT (9/26)
Length of Visible Light 12h 59m
Length of Day
11h 56m
Waxing Crescent, 6% of the Moon is Illuminated
Sep 26
Waxing Crescent
Oct 1
First Quarter
Oct 8
Full
Oct 15
Last Quarter
Oct 23
New

Hourly Weather History & Observations

Time (MDT) Temp. Dew Point Humidity Pressure Visibility Wind Dir Wind Speed Gust Speed Precip Events Conditions
12:56 AM 60.1 °F 46.9 °F 62% 29.65 in 10.0 mi WNW 16.1 mph - N/A   Clear
1:56 AM 59.0 °F 43.0 °F 55% 29.67 in 10.0 mi NW 15.0 mph - N/A   Clear
2:56 AM 57.0 °F 41.0 °F 55% 29.68 in 10.0 mi WNW 11.5 mph - N/A   Clear
3:56 AM 61.0 °F 41.0 °F 48% 29.68 in 10.0 mi NW 16.1 mph - N/A   Scattered Clouds
4:56 AM 62.1 °F 42.1 °F 48% 29.73 in 10.0 mi West 17.3 mph - N/A   Mostly Cloudy
5:56 AM 60.1 °F 43.0 °F 53% 29.74 in 10.0 mi West 25.3 mph 32.2 mph 0.00 in   Mostly Cloudy
6:56 AM 57.0 °F 43.0 °F 59% 29.79 in 10.0 mi West 24.2 mph 32.2 mph N/A   Mostly Cloudy
7:56 AM 55.0 °F 41.0 °F 59% 29.83 in 10.0 mi West 15.0 mph - N/A   Clear
8:56 AM 59.0 °F 42.1 °F 53% 29.86 in 10.0 mi West 4.6 mph - N/A   Clear
9:56 AM 62.1 °F 37.9 °F 41% 29.86 in 10.0 mi WSW 16.1 mph 21.9 mph N/A   Clear
10:56 AM 66.0 °F 37.9 °F 36% 29.87 in 10.0 mi WSW 17.3 mph 25.3 mph N/A   Clear
11:56 AM 66.2 °F 37.4 °F 35% 29.94 in 10.0 mi WSW 29.9 mph 34.5 mph N/A   Clear
12:56 PM 68.0 °F 37.9 °F 33% 29.89 in 10.0 mi West 27.6 mph 39.1 mph N/A   Clear
1:56 PM 68.0 °F 37.0 °F 32% 29.90 in 10.0 mi West 21.9 mph 32.2 mph N/A   Clear
2:56 PM 66.9 °F 37.9 °F 34% 29.92 in 10.0 mi West 32.2 mph 41.4 mph N/A   Partly Cloudy
3:56 PM 66.9 °F 32.0 °F 27% 29.93 in 10.0 mi WSW 29.9 mph 38.0 mph N/A   Clear
4:56 PM 64.9 °F 32.0 °F 29% 29.95 in 10.0 mi West 19.6 mph 28.8 mph N/A   Clear
5:56 PM 63.0 °F 32.0 °F 31% 29.97 in 10.0 mi WSW 17.3 mph - N/A   Clear
6:56 PM 60.1 °F 33.1 °F 36% 29.99 in 10.0 mi WSW 15.0 mph - N/A   Clear
7:56 PM 55.9 °F 34.0 °F 44% 30.02 in 10.0 mi West 15.0 mph - N/A   Clear
8:56 PM 52.0 °F 34.0 °F 50% 30.04 in 10.0 mi NW 4.6 mph - N/A   Clear
9:56 PM 50.0 °F 35.1 °F 57% 30.04 in 10.0 mi WNW 8.1 mph - N/A   Clear
10:56 PM 48.9 °F 35.1 °F 59% 30.05 in 10.0 mi West 5.8 mph - N/A   Clear
11:56 PM 50.0 °F 36.0 °F 59% 30.03 in 10.0 mi WNW 8.1 mph - N/A   Clear